Time,TemperatureF,DewpointF,PressureIn,WindDirection,WindDirectionDegrees,WindSpeedMPH,WindSpeedGustMPH,Humidity,HourlyPrecipIn,Conditions,Clouds,dailyrainin,SoftwareType,DateUTC
2013-04-02 00:00:00,45.1,34.8,30.02,WSW,238,0.0,0.0,67,0.00,SCT,,0.08,WeatherDisplay:10.37,2013-04-02 04:00:00,
2013-04-02 00:01:00,45.0,35.1,30.02,West,266,0.4,3.7,68,0.00,SCT,,0.08,WeatherDisplay:10.37,2013-04-02 04:01:00,
2013-04-02 00:07:00,44.2,33.9,30.02,West,268,0.0,0.0,67,0.00,CLR,,0.00,WeatherDisplay:10.37,2013-04-02 04:07:00,
2013-04-02 00:12:00,44.0,34.1,30.02,SW,231,2.4,4.6,68,0.00,CLR,,0.00,WeatherDisplay:10.37,2013-04-02 04:12:00,
2013-04-02 00:17:00,44.0,34.1,30.02,East,81,0.1,1.2,68,0.00,CLR,,0.00,WeatherDisplay:10.37,2013-04-02 04:17:00,
2013-04-02 00:22:00,44.2,33.9,30.02,SSW,206,6.1,8.1,67,0.00,CLR,,0.00,WeatherDisplay:10.37,2013-04-02 04:22:00,
2013-04-02 00:27:00,44.5,34.2,30.02,WNW,295,0.1,0.0,67,0.00,CLR,,0.00,WeatherDisplay:10.37,2013-04-02 04:27:00,
2013-04-02 00:32:00,44.1,34.2,30.02,WNW,303,0.0,0.0,68,0.00,CLR,,0.00,WeatherDisplay:10.37,2013-04-02 04:32:00,
2013-04-02 00:37:00,43.1,34.0,30.02,WSW,252,0.0,0.0,70,0.00,CLR,,0.00,WeatherDisplay:10.37,2013-04-02 04:37:00,
2013-04-02 00:42:00,42.7,34.6,30.02,WSW,252,0.0,0.0,73,0.00,CLR,,0.00,WeatherDisplay:10.37,2013-04-02 04:42:00,
2013-04-02 00:47:00,42.5,33.4,30.01,SSW,211,1.3,6.1,70,0.00,CLR,,0.00,WeatherDisplay:10.37,2013-04-02 04:47:00,
2013-04-02 00:52:00,44.4,33.7,30.02,WSW,246,0.0,0.0,66,0.00,CLR,,0.00,WeatherDisplay:10.37,2013-04-02 04:52:00,
2013-04-02 00:57:00,44.1,33.5,30.02,ESE,114,1.3,3.7,66,0.00,CLR,,0.00,WeatherDisplay:10.37,2013-04-02 04:57:00,
2013-04-02 01:02:00,43.5,34.7,30.02,West,274,1.4,2.4,71,0.00,CLR,,0.00,WeatherDisplay:10.37,2013-04-02 05:02:00,
2013-04-02 01:07:00,42.8,33.7,30.02,NW,313,0.0,2.3,70,0.00,CLR,,0.00,WeatherDisplay:10.37,2013-04-02 05:07:00,
2013-04-02 01:12:00,43.2,31.8,30.02,SW,224,0.0,3.5,64,0.00,CLR,,0.00,WeatherDisplay:10.37,2013-04-02 05:12:00,
2013-04-02 01:17:00,43.8,33.6,30.02,WSW,239,0.0,2.3,67,0.00,CLR,,0.00,WeatherDisplay:10.37,2013-04-02 05:17:00,
2013-04-02 01:22:00,43.3,34.2,30.02,ESE,104,6.2,9.8,70,0.00,CLR,,0.00,WeatherDisplay:10.37,2013-04-02 05:22:00,
2013-04-02 01:28:00,43.7,32.7,30.02,NE,35,0.0,1.1,65,0.00,CLR,,0.00,WeatherDisplay:10.37,2013-04-02 05:28:00,
2013-04-02 01:33:00,43.5,32.1,30.02,SE,128,7.6,7.6,64,0.00,CLR,,0.00,WeatherDisplay:10.37,2013-04-02 05:33:00,
2013-04-02 01:38:00,43.8,33.6,30.02,West,262,0.0,4.6,67,0.00,CLR,,0.00,WeatherDisplay:10.37,2013-04-02 05:38:00,
2013-04-02 01:43:00,43.4,33.9,30.02,West,262,0.0,0.0,69,0.00,CLR,,0.00,WeatherDisplay:10.37,2013-04-02 05:43:00,
2013-04-02 01:48:00,42.2,33.8,30.02,West,262,0.0,0.0,72,0.00,CLR,,0.00,WeatherDisplay:10.37,2013-04-02 05:48:00,
2013-04-02 01:53:00,41.4,33.4,30.02,SW,223,0.2,2.3,73,0.00,CLR,,0.00,WeatherDisplay:10.37,2013-04-02 05:53:00,
2013-04-02 01:58:00,40.9,34.6,30.02,WSW,238,3.0,4.6,78,0.00,CLR,,0.00,WeatherDisplay:10.37,2013-04-02 05:58:00,
2013-04-02 02:03:00,40.7,33.1,30.02,NNW,334,0.1,1.1,74,0.00,CLR,,0.00,WeatherDisplay:10.37,2013-04-02 06:03:00,
2013-04-02 02:08:00,40.4,33.4,30.02,NW,307,0.3,2.4,76,0.00,CLR,,0.00,WeatherDisplay:10.37,2013-04-02 06:08:00,
2013-04-02 02:13:00,40.0,33.4,30.02,WNW,289,0.1,1.1,77,0.00,CLR,,0.00,WeatherDisplay:10.37,2013-04-02 06:13:00,
2013-04-02 02:18:00,40.0,32.4,30.02,SE,143,0.1,1.1,74,0.00,CLR,,0.00,WeatherDisplay:10.37,2013-04-02 06:18:00,
2013-04-02 02:23:00,40.3,33.7,30.02,SE,143,0.0,1.1,77,0.00,CLR,,0.00,WeatherDisplay:10.37,2013-04-02 06:23:00,
2013-04-02 02:28:00,39.8,33.2,30.02,SW,219,0.0,1.1,77,0.00,CLR,,0.00,WeatherDisplay:10.37,2013-04-02 06:28:00,
2013-04-02 02:33:00,39.4,33.4,30.02,SW,218,0.0,1.1,79,0.00,CLR,,0.00,WeatherDisplay:10.37,2013-04-02 06:33:00,
2013-04-02 02:38:00,39.0,33.0,30.02,SW,219,0.8,3.7,79,0.00,CLR,,0.00,WeatherDisplay:10.37,2013-04-02 06:38:00,
2013-04-02 02:43:00,38.6,33.3,30.02,SW,219,0.0,1.1,81,0.00,CLR,,0.00,WeatherDisplay:10.37,2013-04-02 06:43:00,
2013-04-02 02:48:00,38.7,32.7,30.02,WNW,293,0.0,0.0,79,0.00,CLR,,0.00,WeatherDisplay:10.37,2013-04-02 06:48:00,
2013-04-02 02:53:00,38.8,32.5,30.03,WNW,294,0.0,1.1,78,0.00,CLR,,0.00,WeatherDisplay:10.37,2013-04-02 06:53:00,
2013-04-02 02:58:00,40.0,33.4,30.03,SW,227,1.0,3.7,77,0.00,CLR,,0.00,WeatherDisplay:10.37,2013-04-02 06:58:00,
2013-04-02 03:03:00,39.9,32.6,30.03,WNW,290,3.1,7.3,75,0.00,CLR,,0.00,WeatherDisplay:10.37,2013-04-02 07:03:00,
2013-04-02 03:08:00,40.2,32.6,30.03,South,188,5.0,7.3,74,0.00,CLR,,0.00,WeatherDisplay:10.37,2013-04-02 07:08:00,
2013-04-02 03:13:00,41.1,32.1,30.03,SSW,193,3.0,4.6,70,0.00,CLR,,0.00,WeatherDisplay:10.37,2013-04-02 07:13:00,
2013-04-02 03:18:00,41.7,32.3,30.03,SSW,212,0.0,0.0,69,0.00,CLR,,0.00,WeatherDisplay:10.37,2013-04-02 07:18:00,
2013-04-02 03:23:00,40.9,32.6,30.03,SSW,212,0.0,0.0,72,0.00,CLR,,0.00,WeatherDisplay:10.37,2013-04-02 07:23:00,
2013-04-02 03:28:00,40.3,32.3,30.03,SSW,212,0.0,0.0,73,0.00,CLR,,0.00,WeatherDisplay:10.37,2013-04-02 07:28:00,
2013-04-02 03:33:00,40.6,31.9,30.03,East,91,1.0,4.6,71,0.00,CLR,,0.00,WeatherDisplay:10.37,2013-04-02 07:33:00,
2013-04-02 03:38:00,40.9,32.2,30.03,SSW,197,0.0,1.1,71,0.00,CLR,,0.00,WeatherDisplay:10.37,2013-04-02 07:38:00,
2013-04-02 03:43:00,40.9,31.5,30.03,SW,224,0.0,0.0,69,0.00,CLR,,0.00,WeatherDisplay:10.37,2013-04-02 07:43:00,
2013-04-02 03:48:00,41.4,31.6,30.03,South,181,0.6,3.7,68,0.00,CLR,,0.00,WeatherDisplay:10.37,2013-04-02 07:48:00,
2013-04-02 03:53:00,41.5,31.0,30.04,WSW,245,0.0,1.1,66,0.00,CLR,,0.00,WeatherDisplay:10.37,2013-04-02 07:53:00,
2013-04-02 03:58:00,41.3,31.2,30.03,South,187,0.0,0.0,67,0.00,CLR,,0.00,WeatherDisplay:10.37,2013-04-02 07:58:00,
2013-04-02 04:03:00,40.8,31.1,30.03,South,188,0.0,1.1,68,0.00,CLR,,0.00,WeatherDisplay:10.37,2013-04-02 08:03:00,
2013-04-02 04:08:00,40.2,31.5,30.04,WSW,248,0.0,0.0,71,0.00,CLR,,0.00,WeatherDisplay:10.37,2013-04-02 08:08:00,
2013-04-02 04:13:00,39.4,31.8,30.04,WSW,248,0.0,0.0,74,0.00,CLR,,0.00,WeatherDisplay:10.37,2013-04-02 08:13:00,
2013-04-02 04:18:00,38.8,31.6,30.04,WSW,241,0.0,0.0,75,0.00,CLR,,0.00,WeatherDisplay:10.37,2013-04-02 08:18:00,
2013-04-02 04:23:00,38.9,31.6,30.04,NW,308,0.0,0.0,75,0.00,CLR,,0.00,WeatherDisplay:10.37,2013-04-02 08:23:00,
2013-04-02 04:28:00,38.4,31.8,30.04,NW,308,0.1,1.1,77,0.00,CLR,,0.00,WeatherDisplay:10.37,2013-04-02 08:28:00,
2013-04-02 04:33:00,39.1,30.8,30.04,WSW,237,4.0,6.9,72,0.00,CLR,,0.00,WeatherDisplay:10.37,2013-04-02 08:33:00,
2013-04-02 04:38:00,39.2,31.3,30.04,WSW,241,0.0,0.0,73,0.00,CLR,,0.00,WeatherDisplay:10.37,2013-04-02 08:38:00,
2013-04-02 04:43:00,39.0,30.7,30.04,SSE,159,0.1,1.2,72,0.00,CLR,,0.00,WeatherDisplay:10.37,2013-04-02 08:43:00,
2013-04-02 04:48:00,38.3,31.1,30.05,SW,223,0.7,3.5,75,0.00,CLR,,0.00,WeatherDisplay:10.37,2013-04-02 08:48:00,
2013-04-02 04:53:00,37.6,31.4,30.05,WSW,254,0.0,0.0,78,0.00,CLR,,0.00,WeatherDisplay:10.37,2013-04-02 08:53:00,
2013-04-02 04:58:00,37.3,31.1,30.05,WSW,254,0.0,0.0,78,0.00,CLR,,0.00,WeatherDisplay:10.37,2013-04-02 08:58:00,
2013-04-02 05:03:00,37.0,31.1,30.06,WSW,251,4.1,4.6,79,0.00,CLR,,0.00,WeatherDisplay:10.37,2013-04-02 09:03:00,
2013-04-02 05:08:00,37.1,30.2,30.06,NW,315,0.0,0.0,76,0.00,CLR,,0.00,WeatherDisplay:10.37,2013-04-02 09:08:00,
2013-04-02 05:13:00,37.8,30.3,30.06,WNW,285,0.0,1.1,74,0.00,CLR,,0.00,WeatherDisplay:10.37,2013-04-02 09:13:00,
2013-04-02 05:18:00,37.5,30.9,30.06,WNW,285,0.0,1.1,77,0.00,CLR,,0.00,WeatherDisplay:10.37,2013-04-02 09:18:00,
2013-04-02 05:23:00,36.7,30.8,30.06,WSW,245,1.1,3.7,79,0.00,CLR,,0.00,WeatherDisplay:10.37,2013-04-02 09:23:00,
2013-04-02 05:28:00,36.1,30.5,30.06,WSW,245,0.0,0.0,80,0.00,CLR,,0.00,WeatherDisplay:10.37,2013-04-02 09:28:00,
2013-04-02 05:33:00,35.8,30.2,30.07,WSW,245,0.6,3.5,80,0.00,CLR,,0.00,WeatherDisplay:10.37,2013-04-02 09:33:00,
2013-04-02 05:38:00,35.7,29.8,30.07,WSW,246,0.0,0.0,79,0.00,CLR,,0.00,WeatherDisplay:10.37,2013-04-02 09:38:00,
2013-04-02 05:43:00,35.9,29.4,30.07,WSW,246,0.0,0.0,77,0.00,CLR,,0.00,WeatherDisplay:10.37,2013-04-02 09:43:00,
2013-04-02 05:48:00,36.6,29.7,30.07,East,79,0.1,1.1,76,0.00,CLR,,0.00,WeatherDisplay:10.37,2013-04-02 09:48:00,
2013-04-02 05:53:00,36.7,28.5,30.07,ENE,78,0.0,0.0,72,0.00,CLR,,0.00,WeatherDisplay:10.37,2013-04-02 09:53:00,
2013-04-02 05:58:00,36.5,29.0,30.07,NE,56,0.0,0.0,74,0.00,CLR,,0.00,WeatherDisplay:10.37,2013-04-02 09:58:00,
2013-04-02 06:03:00,36.2,29.0,30.07,NW,308,0.0,0.0,75,0.00,CLR,,0.00,WeatherDisplay:10.37,2013-04-02 10:03:00,
2013-04-02 06:08:00,35.9,29.1,30.08,NW,308,0.0,1.1,76,0.00,CLR,,0.00,WeatherDisplay:10.37,2013-04-02 10:08:00,
2013-04-02 06:13:00,35.6,28.8,30.07,NW,308,0.0,0.0,76,0.00,CLR,,0.00,WeatherDisplay:10.37,2013-04-02 10:13:00,
2013-04-02 06:18:00,35.3,28.8,30.08,NW,308,0.1,1.2,77,0.00,CLR,,0.00,WeatherDisplay:10.37,2013-04-02 10:18:00,
2013-04-02 06:23:00,35.0,28.8,30.08,NW,308,0.0,0.0,78,0.00,CLR,,0.00,WeatherDisplay:10.37,2013-04-02 10:23:00,
2013-04-02 06:28:00,34.7,29.2,30.08,NW,308,0.0,1.2,80,0.00,CLR,,0.00,WeatherDisplay:10.37,2013-04-02 10:28:00,
2013-04-02 06:33:00,34.6,28.8,30.08,WNW,283,1.0,2.4,79,0.00,CLR,,0.00,WeatherDisplay:10.37,2013-04-02 10:33:00,
2013-04-02 06:38:00,34.4,28.9,30.10,WNW,283,1.0,3.5,80,0.00,CLR,,0.00,WeatherDisplay:10.37,2013-04-02 10:38:00,
2013-04-02 06:43:00,34.2,28.7,30.10,WNW,283,0.0,0.0,80,0.00,CLR,,0.00,WeatherDisplay:10.37,2013-04-02 10:43:00,
2013-04-02 06:48:00,34.0,28.8,30.11,WNW,283,0.0,0.0,81,0.00,CLR,,0.00,WeatherDisplay:10.37,2013-04-02 10:48:00,
2013-04-02 06:53:00,33.7,28.8,30.11,WNW,282,0.9,3.5,82,0.00,CLR,,0.00,WeatherDisplay:10.37,2013-04-02 10:53:00,
2013-04-02 06:58:00,33.6,28.4,30.11,WNW,282,0.1,0.0,81,0.00,CLR,,0.00,WeatherDisplay:10.37,2013-04-02 10:58:00,
2013-04-02 07:03:00,33.3,28.7,30.11,WNW,283,1.5,3.5,83,0.00,CLR,,0.00,WeatherDisplay:10.37,2013-04-02 11:03:00,
2013-04-02 07:08:00,33.1,28.5,30.11,WNW,282,0.0,1.1,83,0.00,CLR,,0.00,WeatherDisplay:10.37,2013-04-02 11:08:00,
2013-04-02 07:13:00,32.9,28.3,30.11,WNW,283,0.0,0.0,83,0.00,CLR,,0.00,WeatherDisplay:10.37,2013-04-02 11:13:00,
2013-04-02 07:18:00,32.7,28.4,30.11,WNW,283,0.0,0.0,84,0.00,CLR,,0.00,WeatherDisplay:10.37,2013-04-02 11:18:00,
2013-04-02 07:23:00,32.5,28.5,30.11,WNW,282,0.0,1.1,85,0.00,CLR,,0.00,WeatherDisplay:10.37,2013-04-02 11:23:00,
2013-04-02 07:28:00,32.5,28.2,30.11,WNW,283,0.0,0.0,84,0.00,CLR,,0.00,WeatherDisplay:10.37,2013-04-02 11:28:00,
2013-04-02 07:33:00,32.4,28.1,30.12,WNW,283,0.2,3.5,84,0.00,CLR,,0.00,WeatherDisplay:10.37,2013-04-02 11:33:00,
2013-04-02 07:38:00,32.4,28.1,30.12,WNW,283,0.0,0.0,84,0.00,CLR,,0.00,WeatherDisplay:10.37,2013-04-02 11:38:00,
2013-04-02 07:44:00,32.5,28.5,30.12,WNW,282,0.0,0.0,85,0.00,CLR,,0.00,WeatherDisplay:10.37,2013-04-02 11:44:00,
2013-04-02 07:49:00,32.8,28.8,30.12,WNW,283,0.0,0.0,85,0.00,CLR,,0.00,WeatherDisplay:10.37,2013-04-02 11:49:00,
2013-04-02 07:54:00,32.8,28.5,30.12,WNW,283,0.0,0.0,84,0.00,CLR,,0.00,WeatherDisplay:10.37,2013-04-02 11:54:00,
2013-04-02 07:59:00,32.8,28.8,30.12,WNW,283,0.0,0.0,85,0.00,CLR,,0.00,WeatherDisplay:10.37,2013-04-02 11:59:00,
2013-04-02 08:04:00,32.8,28.5,30.14,WNW,282,0.0,0.0,84,0.00,CLR,,0.00,WeatherDisplay:10.37,2013-04-02 12:04:00,
2013-04-02 08:09:00,33.0,28.7,30.14,WNW,283,0.0,0.0,84,0.00,CLR,,0.00,WeatherDisplay:10.37,2013-04-02 12:09:00,
2013-04-02 08:14:00,33.2,28.9,30.14,WNW,283,0.0,0.0,84,0.00,CLR,,0.00,WeatherDisplay:10.37,2013-04-02 12:14:00,
2013-04-02 08:19:00,33.5,29.2,30.14,WNW,283,0.0,0.0,84,0.00,CLR,,0.00,WeatherDisplay:10.37,2013-04-02 12:19:00,
2013-04-02 08:24:00,33.9,29.0,30.14,WNW,282,0.0,0.0,82,0.00,CLR,,0.00,WeatherDisplay:10.37,2013-04-02 12:24:00,
2013-04-02 08:29:00,35.4,26.2,30.13,SSW,202,0.0,1.1,69,0.00,CLR,,0.00,WeatherDisplay:10.37,2013-04-02 12:29:00,
2013-04-02 08:34:00,36.5,28.0,30.14,SE,145,0.0,1.1,71,0.00,CLR,,0.00,WeatherDisplay:10.37,2013-04-02 12:34:00,
2013-04-02 08:39:00,36.6,28.4,30.14,SE,144,0.0,0.0,72,0.00,CLR,,0.00,WeatherDisplay:10.37,2013-04-02 12:39:00,
2013-04-02 08:44:00,36.7,26.0,30.14,NNE,25,0.0,3.5,65,0.00,CLR,,0.00,WeatherDisplay:10.37,2013-04-02 12:44:00,
2013-04-02 08:49:00,36.9,26.2,30.15,SW,220,6.5,6.9,65,0.00,CLR,,0.00,WeatherDisplay:10.37,2013-04-02 12:49:00,
2013-04-02 08:54:00,37.5,25.3,30.15,WSW,245,0.0,0.0,61,0.00,CLR,,0.00,WeatherDisplay:10.37,2013-04-02 12:54:00,
2013-04-02 08:59:00,38.0,28.0,30.15,East,86,2.0,3.7,67,0.00,CLR,,0.00,WeatherDisplay:10.37,2013-04-02 12:59:00,
2013-04-02 09:04:00,38.2,27.8,30.14,ENE,73,4.0,8.1,66,0.00,CLR,,0.00,WeatherDisplay:10.37,2013-04-02 13:04:00,
2013-04-02 09:09:00,38.4,28.4,30.14,East,81,4.5,6.9,67,0.00,CLR,,0.00,WeatherDisplay:10.37,2013-04-02 13:09:00,
2013-04-02 09:14:00,38.6,27.5,30.14,ENE,74,3.4,5.8,64,0.00,CLR,,0.00,WeatherDisplay:10.37,2013-04-02 13:14:00,
2013-04-02 09:19:00,38.7,27.9,30.14,ENE,60,3.1,4.6,65,0.00,CLR,,0.00,WeatherDisplay:10.37,2013-04-02 13:19:00,
2013-04-02 09:24:00,38.8,27.3,30.14,NE,54,4.3,4.6,63,0.00,CLR,,0.00,WeatherDisplay:10.37,2013-04-02 13:24:00,
2013-04-02 09:29:00,39.2,28.0,30.14,ENE,58,2.6,4.6,64,0.00,CLR,,0.00,WeatherDisplay:10.37,2013-04-02 13:29:00,
2013-04-02 09:34:00,39.4,27.8,30.15,ENE,62,2.8,3.7,63,0.00,CLR,,0.00,WeatherDisplay:10.37,2013-04-02 13:34:00,
2013-04-02 09:39:00,39.7,26.9,30.15,NE,36,8.5,8.5,60,0.00,CLR,,0.00,WeatherDisplay:10.37,2013-04-02 13:39:00,
2013-04-02 09:44:00,40.1,27.7,30.15,NE,38,4.8,5.8,61,0.00,CLR,,0.00,WeatherDisplay:10.37,2013-04-02 13:44:00,
2013-04-02 09:49:00,40.6,26.5,30.15,NE,36,4.7,4.7,57,0.00,CLR,,0.00,WeatherDisplay:10.37,2013-04-02 13:49:00,
2013-04-02 09:54:00,41.2,27.9,30.15,NE,50,6.3,8.1,59,0.00,CLR,,0.00,WeatherDisplay:10.37,2013-04-02 13:54:00,
2013-04-02 09:59:00,41.7,28.0,30.15,ENE,78,3.8,4.6,58,0.00,CLR,,0.00,WeatherDisplay:10.37,2013-04-02 13:59:00,
2013-04-02 10:04:00,41.8,27.7,30.15,ENE,70,4.2,6.9,57,0.00,CLR,,0.00,WeatherDisplay:10.37,2013-04-02 14:04:00,
2013-04-02 10:09:00,42.2,27.6,30.15,NE,43,2.0,3.7,56,0.00,CLR,,0.00,WeatherDisplay:10.37,2013-04-02 14:09:00,
2013-04-02 10:14:00,42.3,27.3,30.15,NE,52,4.2,5.8,55,0.00,CLR,,0.00,WeatherDisplay:10.37,2013-04-02 14:14:00,
2013-04-02 10:19:00,42.5,27.5,30.15,ENE,57,3.3,5.8,55,0.00,CLR,,0.00,WeatherDisplay:10.37,2013-04-02 14:19:00,
2013-04-02 10:24:00,42.9,28.3,30.15,NE,38,3.7,9.2,56,0.00,CLR,,0.00,WeatherDisplay:10.37,2013-04-02 14:24:00,
2013-04-02 10:29:00,43.0,27.0,30.15,NNE,33,3.2,5.8,53,0.00,CLR,,0.00,WeatherDisplay:10.37,2013-04-02 14:29:00,
2013-04-02 10:34:00,43.1,28.5,30.16,NE,55,2.6,5.8,56,0.00,CLR,,0.00,WeatherDisplay:10.37,2013-04-02 14:34:00,
2013-04-02 10:39:00,43.4,29.2,30.16,ENE,64,5.7,8.1,57,0.00,CLR,,0.00,WeatherDisplay:10.37,2013-04-02 14:39:00,
2013-04-02 10:44:00,43.5,29.7,30.16,ENE,60,2.6,5.8,58,0.00,CLR,,0.00,WeatherDisplay:10.37,2013-04-02 14:44:00,
2013-04-02 10:49:00,44.1,28.5,30.17,ENE,74,5.3,5.8,54,0.00,CLR,,0.00,WeatherDisplay:10.37,2013-04-02 14:49:00,
2013-04-02 10:54:00,44.3,27.3,30.17,ENE,66,4.7,5.8,51,0.00,CLR,,0.00,WeatherDisplay:10.37,2013-04-02 14:54:00,
2013-04-02 10:59:00,44.5,27.5,30.17,NE,55,4.8,6.9,51,0.00,CLR,,0.00,WeatherDisplay:10.37,2013-04-02 14:59:00,
2013-04-02 11:04:00,45.0,30.2,30.16,ENE,58,7.0,11.5,56,0.00,CLR,,0.00,WeatherDisplay:10.37,2013-04-02 15:04:00,
2013-04-02 11:09:00,45.3,28.7,30.16,ENE,70,3.8,5.8,52,0.00,CLR,,0.00,WeatherDisplay:10.37,2013-04-02 15:09:00,
2013-04-02 11:14:00,45.9,26.8,30.16,NE,37,8.6,8.6,47,0.00,CLR,,0.00,WeatherDisplay:10.37,2013-04-02 15:14:00,
2013-04-02 11:19:00,45.4,26.8,30.16,NE,40,1.4,2.4,48,0.00,CLR,,0.00,WeatherDisplay:10.37,2013-04-02 15:19:00,
2013-04-02 11:24:00,45.4,23.0,30.16,ENE,58,3.3,3.5,41,0.00,CLR,,0.00,WeatherDisplay:10.37,2013-04-02 15:24:00,
2013-04-02 11:29:00,46.6,27.4,30.16,NNE,33,11.1,13.8,47,0.00,CLR,,0.00,WeatherDisplay:10.37,2013-04-02 15:29:00,
2013-04-02 11:34:00,46.6,23.5,30.15,ENE,66,5.8,11.5,40,0.00,CLR,,0.00,WeatherDisplay:10.37,2013-04-02 15:34:00,
2013-04-02 11:39:00,46.9,22.0,30.15,East,91,6.7,9.2,37,0.00,CLR,,0.00,WeatherDisplay:10.37,2013-04-02 15:39:00,
2013-04-02 11:45:00,46.8,27.6,30.15,NE,52,5.1,9.2,47,0.00,CLR,,0.00,WeatherDisplay:10.37,2013-04-02 15:45:00,
2013-04-02 11:50:00,47.3,27.5,30.15,NNE,29,7.2,9.8,46,0.00,CLR,,0.00,WeatherDisplay:10.37,2013-04-02 15:50:00,
2013-04-02 11:55:00,48.1,32.2,30.16,ENE,71,4.4,6.1,54,0.00,CLR,,0.00,WeatherDisplay:10.37,2013-04-02 15:55:00,
2013-04-02 12:00:00,48.0,29.7,30.15,ENE,67,4.2,6.9,49,0.00,CLR,,0.00,WeatherDisplay:10.37,2013-04-02 16:00:00,
2013-04-02 12:05:00,47.5,28.3,30.16,NE,50,6.3,11.5,47,0.00,CLR,,0.00,WeatherDisplay:10.37,2013-04-02 16:05:00,
2013-04-02 12:10:00,47.3,23.6,30.15,ESE,114,9.8,9.8,39,0.00,CLR,,0.00,WeatherDisplay:10.37,2013-04-02 16:10:00,
2013-04-02 12:15:00,47.6,26.7,30.15,ENE,74,7.4,11.5,44,0.00,CLR,,0.00,WeatherDisplay:10.37,2013-04-02 16:15:00,
2013-04-02 12:20:00,48.9,26.8,30.16,East,89,5.9,8.1,42,0.00,CLR,,0.00,WeatherDisplay:10.37,2013-04-02 16:20:00,
2013-04-02 12:25:00,49.5,24.3,30.16,East,85,0.5,1.1,37,0.00,CLR,,0.00,WeatherDisplay:10.37,2013-04-02 16:25:00,
2013-04-02 12:30:00,49.9,22.6,30.16,SE,135,1.6,6.9,34,0.00,CLR,,0.00,WeatherDisplay:10.37,2013-04-02 16:30:00,
2013-04-02 12:36:00,50.4,30.9,30.15,ENE,71,5.1,9.2,47,0.00,CLR,,0.00,WeatherDisplay:10.37,2013-04-02 16:36:00,
2013-04-02 12:41:00,48.8,19.5,30.14,East,84,15.0,23.0,31,0.00,CLR,,0.00,WeatherDisplay:10.37,2013-04-02 16:41:00,
2013-04-02 12:47:00,48.3,18.3,30.15,ESE,102,5.1,13.8,30,0.00,CLR,,0.00,WeatherDisplay:10.37,2013-04-02 16:47:00,
2013-04-02 12:52:00,49.0,21.8,30.15,East,91,0.5,3.7,34,0.00,CLR,,0.00,WeatherDisplay:10.37,2013-04-02 16:52:00,
2013-04-02 12:57:00,50.3,23.0,30.15,East,88,7.0,8.1,34,0.00,CLR,,0.00,WeatherDisplay:10.37,2013-04-02 16:57:00,
2013-04-02 13:02:00,51.0,22.1,30.15,East,89,2.0,6.9,32,0.00,CLR,,0.00,WeatherDisplay:10.37,2013-04-02 17:02:00,
2013-04-02 13:07:00,51.5,24.7,30.13,ENE,62,10.6,15.0,35,0.00,CLR,,0.00,WeatherDisplay:10.37,2013-04-02 17:07:00,
2013-04-02 13:12:00,51.1,27.0,30.13,NE,46,4.1,4.6,39,0.00,CLR,,0.00,WeatherDisplay:10.37,2013-04-02 17:12:00,
2013-04-02 13:17:00,51.2,20.0,30.13,ENE,62,9.3,13.8,29,0.00,CLR,,0.00,WeatherDisplay:10.37,2013-04-02 17:17:00,
2013-04-02 13:22:00,50.7,17.0,30.12,East,98,0.6,5.8,26,0.00,CLR,,0.00,WeatherDisplay:10.37,2013-04-02 17:22:00,
2013-04-02 13:27:00,51.3,23.8,30.12,East,88,8.5,11.5,34,0.00,CLR,,0.00,WeatherDisplay:10.37,2013-04-02 17:27:00,
2013-04-02 13:33:00,51.4,27.9,30.12,ENE,61,4.0,8.1,40,0.00,CLR,,0.00,WeatherDisplay:10.37,2013-04-02 17:33:00,
2013-04-02 13:38:00,52.8,27.9,30.11,NE,46,8.3,11.5,38,0.00,CLR,,0.00,WeatherDisplay:10.37,2013-04-02 17:38:00,
2013-04-02 13:43:00,52.7,30.2,30.11,East,81,8.5,11.0,42,0.00,CLR,,0.00,WeatherDisplay:10.37,2013-04-02 17:43:00,
2013-04-02 13:48:00,53.1,31.7,30.11,ENE,78,10.1,10.1,44,0.00,CLR,,0.00,WeatherDisplay:10.37,2013-04-02 17:48:00,
2013-04-02 13:53:00,52.8,25.2,30.11,East,96,8.8,11.5,34,0.00,CLR,,0.00,WeatherDisplay:10.37,2013-04-02 17:53:00,
2013-04-02 13:58:00,52.6,27.0,30.11,NE,34,5.0,7.3,37,0.00,CLR,,0.00,WeatherDisplay:10.37,2013-04-02 17:58:00,
2013-04-02 14:03:00,52.6,22.8,30.11,East,86,5.0,9.2,31,0.00,CLR,,0.00,WeatherDisplay:10.37,2013-04-02 18:03:00,
2013-04-02 14:08:00,52.6,23.5,30.10,NE,38,3.2,5.8,32,0.00,CLR,,0.00,WeatherDisplay:10.37,2013-04-02 18:08:00,
2013-04-02 14:13:00,53.4,26.4,30.10,NE,48,3.3,11.5,35,0.00,CLR,,0.00,WeatherDisplay:10.37,2013-04-02 18:13:00,
2013-04-02 14:18:00,53.8,27.4,30.10,ENE,69,5.1,11.5,36,0.00,CLR,,0.00,WeatherDisplay:10.37,2013-04-02 18:18:00,
2013-04-02 14:23:00,53.8,25.3,30.10,East,93,3.8,4.6,33,0.00,CLR,,0.00,WeatherDisplay:10.37,2013-04-02 18:23:00,
2013-04-02 14:28:00,53.9,26.1,30.10,NE,53,3.2,5.8,34,0.00,CLR,,0.00,WeatherDisplay:10.37,2013-04-02 18:28:00,
2013-04-02 14:33:00,54.0,25.5,30.10,ENE,70,10.4,12.7,33,0.00,CLR,,0.00,WeatherDisplay:10.37,2013-04-02 18:33:00,
2013-04-02 14:39:00,54.6,27.5,30.10,NE,55,3.8,5.8,35,0.00,CLR,,0.00,WeatherDisplay:10.37,2013-04-02 18:39:00,
2013-04-02 14:44:00,55.1,27.2,30.10,ENE,64,12.4,13.8,34,0.00,CLR,,0.00,WeatherDisplay:10.37,2013-04-02 18:44:00,
2013-04-02 14:49:00,54.4,27.3,30.09,ENE,64,6.2,6.9,35,0.00,CLR,,0.00,WeatherDisplay:10.37,2013-04-02 18:49:00,
2013-04-02 14:54:00,54.2,29.1,30.09,ENE,67,4.1,8.1,38,0.00,CLR,,0.00,WeatherDisplay:10.37,2013-04-02 18:54:00,
2013-04-02 14:59:00,53.5,29.7,30.09,NE,36,4.4,8.5,40,0.00,CLR,,0.00,WeatherDisplay:10.37,2013-04-02 18:59:00,
2013-04-02 15:04:00,54.3,28.6,30.09,ENE,77,3.6,6.9,37,0.00,CLR,,0.00,WeatherDisplay:10.37,2013-04-02 19:04:00,
2013-04-02 15:09:00,54.8,27.6,30.09,ENE,63,4.9,8.5,35,0.00,CLR,,0.00,WeatherDisplay:10.37,2013-04-02 19:09:00,
2013-04-02 15:14:00,54.9,27.0,30.09,NE,56,3.3,5.8,34,0.00,CLR,,0.00,WeatherDisplay:10.37,2013-04-02 19:14:00,
2013-04-02 15:19:00,55.0,28.5,30.09,NNE,31,5.8,8.1,36,0.00,CLR,,0.00,WeatherDisplay:10.37,2013-04-02 19:19:00,
2013-04-02 15:24:00,55.2,25.1,30.09,East,95,3.0,5.8,31,0.00,CLR,,0.00,WeatherDisplay:10.37,2013-04-02 19:24:00,
2013-04-02 15:29:00,54.7,26.1,30.09,ESE,104,3.0,4.6,33,0.00,CLR,,0.00,WeatherDisplay:10.37,2013-04-02 19:29:00,
2013-04-02 15:34:00,54.9,24.8,30.08,ENE,64,3.3,3.5,31,0.00,CLR,,0.00,WeatherDisplay:10.37,2013-04-02 19:34:00,
2013-04-02 15:39:00,55.1,25.7,30.08,East,79,2.9,5.8,32,0.00,CLR,,0.00,WeatherDisplay:10.37,2013-04-02 19:39:00,
2013-04-02 15:44:00,55.0,25.6,30.08,NE,50,7.1,13.4,32,0.00,CLR,,0.00,WeatherDisplay:10.37,2013-04-02 19:44:00,
2013-04-02 15:49:00,55.5,23.7,30.08,East,87,8.7,13.8,29,0.00,CLR,,0.00,WeatherDisplay:10.37,2013-04-02 19:49:00,
2013-04-02 15:54:00,55.4,26.0,30.08,ENE,61,8.5,12.2,32,0.00,CLR,,0.00,WeatherDisplay:10.37,2013-04-02 19:54:00,
2013-04-02 15:59:00,55.3,26.7,30.08,NE,47,6.0,8.1,33,0.00,CLR,,0.00,WeatherDisplay:10.37,2013-04-02 19:59:00,
2013-04-02 16:04:00,55.2,24.3,30.07,NNE,17,8.2,11.5,30,0.00,CLR,,0.00,WeatherDisplay:10.37,2013-04-02 20:04:00,
2013-04-02 16:09:00,54.3,24.3,30.07,East,93,7.4,12.7,31,0.00,CLR,,0.00,WeatherDisplay:10.37,2013-04-02 20:09:00,
2013-04-02 16:14:00,52.9,23.8,30.07,ENE,59,8.5,13.8,32,0.00,CLR,,0.00,WeatherDisplay:10.37,2013-04-02 20:14:00,
2013-04-02 16:19:00,52.4,23.4,30.07,NE,52,5.2,8.1,32,0.00,CLR,,0.00,WeatherDisplay:10.37,2013-04-02 20:19:00,
2013-04-02 16:24:00,52.1,24.6,30.07,ENE,62,3.6,5.8,34,0.00,CLR,,0.00,WeatherDisplay:10.37,2013-04-02 20:24:00,
2013-04-02 16:29:00,51.9,24.4,30.07,NE,56,2.1,2.3,34,0.00,CLR,,0.00,WeatherDisplay:10.37,2013-04-02 20:29:00,
2013-04-02 16:34:00,51.9,26.4,30.08,NNE,28,4.8,4.9,37,0.00,CLR,,0.00,WeatherDisplay:10.37,2013-04-02 20:34:00,
2013-04-02 16:39:00,51.9,22.9,30.07,NNE,17,5.1,6.9,32,0.00,CLR,,0.00,WeatherDisplay:10.37,2013-04-02 20:39:00,
2013-04-02 16:45:00,51.8,25.0,30.08,NE,51,5.3,6.9,35,0.00,CLR,,0.00,WeatherDisplay:10.37,2013-04-02 20:45:00,
2013-04-02 16:50:00,52.3,25.4,30.07,ENE,58,10.0,12.7,35,0.00,CLR,,0.00,WeatherDisplay:10.37,2013-04-02 20:50:00,
2013-04-02 16:55:00,52.1,22.4,30.07,ENE,62,3.0,9.0,31,0.00,CLR,,0.00,WeatherDisplay:10.37,2013-04-02 20:55:00,
2013-04-02 17:00:00,51.7,22.8,30.07,ENE,68,3.9,6.9,32,0.00,CLR,,0.00,WeatherDisplay:10.37,2013-04-02 21:00:00,
2013-04-02 17:05:00,51.4,22.5,30.08,NE,42,6.4,6.4,32,0.00,CLR,,0.00,WeatherDisplay:10.37,2013-04-02 21:05:00,
2013-04-02 17:10:00,51.3,22.4,30.07,ENE,64,4.1,8.1,32,0.00,CLR,,0.00,WeatherDisplay:10.37,2013-04-02 21:10:00,
2013-04-02 17:15:00,51.2,22.3,30.07,NE,52,5.7,8.5,32,0.00,CLR,,0.00,WeatherDisplay:10.37,2013-04-02 21:15:00,
2013-04-02 17:20:00,51.0,20.6,30.08,East,84,6.5,8.1,30,0.00,CLR,,0.00,WeatherDisplay:10.37,2013-04-02 21:20:00,
2013-04-02 17:25:00,50.8,23.4,30.08,ENE,66,1.3,3.7,34,0.00,CLR,,0.00,WeatherDisplay:10.37,2013-04-02 21:25:00,
2013-04-02 17:30:00,50.7,23.3,30.08,ENE,63,3.0,9.0,34,0.00,CLR,,0.00,WeatherDisplay:10.37,2013-04-02 21:30:00,
2013-04-02 17:35:00,50.8,22.7,30.08,ENE,57,4.4,11.5,33,0.00,CLR,,0.00,WeatherDisplay:10.37,2013-04-02 21:35:00,
2013-04-02 17:40:00,50.7,21.9,30.08,ENE,67,3.3,4.9,32,0.00,CLR,,0.00,WeatherDisplay:10.37,2013-04-02 21:40:00,
2013-04-02 17:46:00,50.7,22.6,30.08,ENE,70,4.8,8.5,33,0.00,CLR,,0.00,WeatherDisplay:10.37,2013-04-02 21:46:00,
2013-04-02 17:52:00,50.7,22.6,30.08,ENE,62,2.9,5.8,33,0.00,CLR,,0.00,WeatherDisplay:10.37,2013-04-02 21:52:00,
2013-04-02 17:57:00,50.5,22.4,30.08,NE,54,3.1,4.9,33,0.00,CLR,,0.00,WeatherDisplay:10.37,2013-04-02 21:57:00,
2013-04-02 18:02:00,50.4,23.1,30.08,ENE,59,3.4,4.9,34,0.00,FEW,,0.00,WeatherDisplay:10.37,2013-04-02 22:02:00,
2013-04-02 18:07:00,50.1,24.2,30.10,NE,45,1.1,3.7,36,0.00,FEW,,0.00,WeatherDisplay:10.37,2013-04-02 22:07:00,
2013-04-02 18:12:00,50.0,22.7,30.10,NE,48,1.0,3.5,34,0.00,FEW,,0.00,WeatherDisplay:10.37,2013-04-02 22:12:00,
2013-04-02 18:17:00,49.8,24.5,30.10,ENE,58,4.3,6.1,37,0.00,FEW,,0.00,WeatherDisplay:10.37,2013-04-02 22:17:00,
2013-04-02 18:22:00,49.5,22.9,30.10,NE,41,3.8,4.9,35,0.00,FEW,,0.00,WeatherDisplay:10.37,2013-04-02 22:22:00,
2013-04-02 18:27:00,49.1,24.6,30.10,NE,55,2.8,4.6,38,0.00,FEW,,0.00,WeatherDisplay:10.37,2013-04-02 22:27:00,
2013-04-02 18:32:00,48.8,23.0,30.10,NE,54,5.7,8.1,36,0.00,FEW,,0.00,WeatherDisplay:10.37,2013-04-02 22:32:00,
2013-04-02 18:38:00,48.4,23.3,30.10,ENE,58,2.9,4.9,37,0.00,FEW,,0.00,WeatherDisplay:10.37,2013-04-02 22:38:00,
2013-04-02 18:43:00,48.1,22.4,30.10,East,82,5.1,8.1,36,0.00,FEW,,0.00,WeatherDisplay:10.37,2013-04-02 22:43:00,
2013-04-02 18:48:00,47.8,22.8,30.10,East,95,3.1,6.1,37,0.00,FEW,,0.00,WeatherDisplay:10.37,2013-04-02 22:48:00,
2013-04-02 18:53:00,47.6,21.9,30.10,ENE,59,6.4,8.5,36,0.00,FEW,,0.00,WeatherDisplay:10.37,2013-04-02 22:53:00,
2013-04-02 18:58:00,47.5,23.1,30.10,East,91,1.8,3.5,38,0.00,FEW,,0.00,WeatherDisplay:10.37,2013-04-02 22:58:00,
2013-04-02 19:03:00,47.3,22.3,30.10,ENE,71,3.1,3.7,37,0.00,OVC,,0.00,WeatherDisplay:10.37,2013-04-02 23:03:00,
2013-04-02 19:08:00,47.2,22.2,30.11,ENE,64,1.6,8.1,37,0.00,OVC,,0.00,WeatherDisplay:10.37,2013-04-02 23:08:00,
2013-04-02 19:13:00,47.1,22.1,30.11,NE,54,1.4,3.5,37,0.00,OVC,,0.00,WeatherDisplay:10.37,2013-04-02 23:13:00,
2013-04-02 19:18:00,47.0,23.9,30.11,ENE,60,1.7,3.5,40,0.00,OVC,,0.00,WeatherDisplay:10.37,2013-04-02 23:18:00,
2013-04-02 19:23:00,46.9,23.8,30.11,ENE,75,0.0,1.1,40,0.00,OVC,,0.00,WeatherDisplay:10.37,2013-04-02 23:23:00,
2013-04-02 19:28:00,46.8,24.9,30.12,ENE,67,0.0,1.1,42,0.00,OVC,,0.00,WeatherDisplay:10.37,2013-04-02 23:28:00,
2013-04-02 19:34:00,46.7,22.4,30.11,ENE,68,0.0,0.0,38,0.00,OVC,,0.00,WeatherDisplay:10.37,2013-04-02 23:34:00,
2013-04-02 19:39:00,46.6,23.5,30.11,East,95,1.4,2.4,40,0.00,OVC,,0.00,WeatherDisplay:10.37,2013-04-02 23:39:00,
2013-04-02 19:44:00,46.3,23.9,30.11,ENE,78,0.8,1.2,41,0.00,OVC,,0.00,WeatherDisplay:10.37,2013-04-02 23:44:00,
2013-04-02 19:49:00,46.1,23.7,30.11,ENE,63,1.0,1.2,41,0.00,OVC,,0.00,WeatherDisplay:10.37,2013-04-02 23:49:00,
2013-04-02 19:54:00,46.0,24.2,30.11,ENE,63,0.2,1.1,42,0.00,OVC,,0.00,WeatherDisplay:10.37,2013-04-02 23:54:00,
2013-04-02 19:59:00,45.8,24.0,30.11,ESE,108,0.2,1.2,42,0.00,OVC,,0.00,WeatherDisplay:10.37,2013-04-02 23:59:00,
2013-04-02 20:04:00,45.7,24.5,30.12,ESE,108,0.0,0.0,43,0.00,OVC,,0.00,WeatherDisplay:10.37,2013-04-03 00:04:00,
2013-04-02 20:09:00,45.6,24.4,30.12,ESE,108,0.0,0.0,43,0.00,OVC,,0.00,WeatherDisplay:10.37,2013-04-03 00:09:00,
2013-04-02 20:14:00,45.5,24.8,30.12,ESE,108,0.0,0.0,44,0.00,OVC,,0.00,WeatherDisplay:10.37,2013-04-03 00:14:00,
2013-04-02 20:19:00,45.5,25.9,30.11,ESE,108,0.0,0.0,46,0.00,OVC,,0.00,WeatherDisplay:10.37,2013-04-03 00:19:00,
2013-04-02 20:24:00,45.4,23.0,30.11,ESE,108,0.0,0.0,41,0.00,OVC,,0.00,WeatherDisplay:10.37,2013-04-03 00:24:00,
2013-04-02 20:29:00,45.4,22.5,30.11,ESE,108,0.0,0.0,40,0.00,OVC,,0.00,WeatherDisplay:10.37,2013-04-03 00:29:00,
2013-04-02 20:34:00,45.4,23.6,30.12,East,79,0.9,2.3,42,0.00,OVC,,0.00,WeatherDisplay:10.37,2013-04-03 00:34:00,
2013-04-02 20:39:00,45.3,23.0,30.12,East,80,0.2,2.3,41,0.00,OVC,,0.00,WeatherDisplay:10.37,2013-04-03 00:39:00,
2013-04-02 20:44:00,45.3,26.7,30.12,East,79,0.0,0.0,48,0.00,OVC,,0.00,WeatherDisplay:10.37,2013-04-03 00:44:00,
2013-04-02 20:50:00,45.2,25.6,30.12,East,80,0.1,1.1,46,0.00,OVC,,0.00,WeatherDisplay:10.37,2013-04-03 00:50:00,
2013-04-02 20:55:00,45.1,25.0,30.12,East,79,0.1,1.1,45,0.00,OVC,,0.00,WeatherDisplay:10.37,2013-04-03 00:55:00,
2013-04-02 21:00:00,45.0,24.4,30.12,East,79,0.0,0.0,44,0.00,OVC,,0.00,WeatherDisplay:10.37,2013-04-03 01:00:00,
2013-04-02 21:05:00,45.0,25.4,30.14,East,79,0.0,0.0,46,0.00,OVC,,0.00,WeatherDisplay:10.37,2013-04-03 01:05:00,
2013-04-02 21:10:00,44.9,24.3,30.14,NE,55,2.1,3.5,44,0.00,OVC,,0.00,WeatherDisplay:10.37,2013-04-03 01:10:00,
2013-04-02 21:15:00,44.9,22.6,30.14,NE,55,0.0,0.0,41,0.00,OVC,,0.00,WeatherDisplay:10.37,2013-04-03 01:15:00,
2013-04-02 21:20:00,45.0,24.9,30.14,NE,55,0.0,0.0,45,0.00,OVC,,0.00,WeatherDisplay:10.37,2013-04-03 01:20:00,
2013-04-02 21:25:00,44.9,24.3,30.14,NE,55,0.0,1.1,44,0.00,OVC,,0.00,WeatherDisplay:10.37,2013-04-03 01:25:00,
2013-04-02 21:30:00,44.9,24.8,30.14,NE,55,0.0,0.0,45,0.00,OVC,,0.00,WeatherDisplay:10.37,2013-04-03 01:30:00,
2013-04-02 21:35:00,44.8,24.7,30.15,NE,55,1.2,2.3,45,0.00,OVC,,0.00,WeatherDisplay:10.37,2013-04-03 01:35:00,
2013-04-02 21:40:00,44.7,23.5,30.15,NE,55,0.0,0.0,43,0.00,OVC,,0.00,WeatherDisplay:10.37,2013-04-03 01:40:00,
2013-04-02 21:45:00,44.6,25.6,30.15,NE,55,0.6,1.2,47,0.00,OVC,,0.00,WeatherDisplay:10.37,2013-04-03 01:45:00,
2013-04-02 21:50:00,44.5,25.5,30.15,NE,55,0.0,0.0,47,0.00,OVC,,0.00,WeatherDisplay:10.37,2013-04-03 01:50:00,
2013-04-02 21:55:00,44.4,26.9,30.15,NE,55,0.0,0.0,50,0.00,OVC,,0.00,WeatherDisplay:10.37,2013-04-03 01:55:00,
2013-04-02 22:00:00,44.2,24.7,30.15,NE,55,0.0,0.0,46,0.00,OVC,,0.00,WeatherDisplay:10.37,2013-04-03 02:00:00,
2013-04-02 22:05:00,44.1,23.6,30.14,NE,55,1.9,3.5,44,0.00,OVC,,0.00,WeatherDisplay:10.37,2013-04-03 02:05:00,
2013-04-02 22:10:00,44.1,25.1,30.14,NE,55,0.0,0.0,47,0.00,OVC,,0.00,WeatherDisplay:10.37,2013-04-03 02:10:00,
2013-04-02 22:15:00,44.1,25.6,30.14,NE,55,0.0,0.0,48,0.00,OVC,,0.00,WeatherDisplay:10.37,2013-04-03 02:15:00,
2013-04-02 22:20:00,44.0,26.5,30.15,NE,55,0.0,0.0,50,0.00,OVC,,0.00,WeatherDisplay:10.37,2013-04-03 02:20:00,
2013-04-02 22:25:00,43.9,26.9,30.15,NE,55,0.0,0.0,51,0.00,OVC,,0.00,WeatherDisplay:10.37,2013-04-03 02:25:00,
2013-04-02 22:30:00,43.8,26.8,30.15,NE,55,0.0,0.0,51,0.00,OVC,,0.00,WeatherDisplay:10.37,2013-04-03 02:30:00,
2013-04-02 22:35:00,43.8,28.7,30.14,NE,55,0.0,0.0,55,0.00,OVC,,0.00,WeatherDisplay:10.37,2013-04-03 02:35:00,
2013-04-02 22:41:00,43.7,29.0,30.15,NE,55,0.0,0.0,56,0.00,OVC,,0.00,WeatherDisplay:10.37,2013-04-03 02:41:00,
2013-04-02 22:46:00,43.5,29.3,30.15,NE,55,0.0,0.0,57,0.00,OVC,,0.00,WeatherDisplay:10.37,2013-04-03 02:46:00,
2013-04-02 22:51:00,43.2,26.3,30.15,NE,55,0.0,0.0,51,0.00,OVC,,0.00,WeatherDisplay:10.37,2013-04-03 02:51:00,
2013-04-02 22:56:00,42.9,28.7,30.15,NE,55,0.0,0.0,57,0.00,OVC,,0.00,WeatherDisplay:10.37,2013-04-03 02:56:00,
2013-04-02 23:01:00,42.6,28.4,30.15,NE,55,0.0,0.0,57,0.00,OVC,,0.00,WeatherDisplay:10.37,2013-04-03 03:01:00,
2013-04-02 23:06:00,42.2,28.5,30.15,NE,55,0.0,0.0,58,0.00,OVC,,0.00,WeatherDisplay:10.37,2013-04-03 03:06:00,
2013-04-02 23:12:00,41.8,28.5,30.15,NE,55,0.1,1.2,59,0.00,OVC,,0.00,WeatherDisplay:10.37,2013-04-03 03:12:00,
2013-04-02 23:17:00,41.4,28.5,30.15,NE,55,1.4,2.4,60,0.00,OVC,,0.00,WeatherDisplay:10.37,2013-04-03 03:17:00,
2013-04-02 23:22:00,41.1,29.5,30.15,NE,55,0.0,0.0,63,0.00,OVC,,0.00,WeatherDisplay:10.37,2013-04-03 03:22:00,
2013-04-02 23:27:00,41.0,29.4,30.15,NE,55,0.0,0.0,63,0.00,OVC,,0.00,WeatherDisplay:10.37,2013-04-03 03:27:00,
2013-04-02 23:32:00,40.9,29.7,30.15,NE,55,0.0,0.0,64,0.00,OVC,,0.00,WeatherDisplay:10.37,2013-04-03 03:32:00,
2013-04-02 23:37:00,40.8,29.6,30.15,NE,55,0.0,0.0,64,0.00,OVC,,0.00,WeatherDisplay:10.37,2013-04-03 03:37:00,
2013-04-02 23:42:00,40.9,29.3,30.15,NE,55,0.0,1.1,63,0.00,OVC,,0.00,WeatherDisplay:10.37,2013-04-03 03:42:00,
2013-04-02 23:47:00,40.8,29.2,30.15,NE,55,0.0,0.0,63,0.00,OVC,,0.00,WeatherDisplay:10.37,2013-04-03 03:47:00,
2013-04-02 23:52:00,40.5,28.1,30.16,NE,55,0.0,1.1,61,0.00,OVC,,0.00,WeatherDisplay:10.37,2013-04-03 03:52:00,
2013-04-02 23:58:00,40.3,29.8,30.15,NE,55,0.0,0.0,66,0.00,OVC,,0.00,WeatherDisplay:10.37,2013-04-03 03:58:00,